RED82 CYKF-CYXU

Flight info

Callsign RED82
Flight time 0h 24m
Altitude 9000
Route CYKF RWY26 CYKF3 CYKF DCT TETOS DCT CYXU VIA DAVOK RWY33 Y
Aircraft C172/L-SG/L

Departure

Time 2026-04-19 02:38
Airport Region of Waterloo International Airport (CYKF)

Arrival

Time 2026-04-19 03:02
Airport London International Airport (CYXU)
Time Latitude Longitude Altitude Speed Heading
2026-04-19 02:17 43.45684 -80.38659 1031 ft 0 kts 175°
2026-04-19 02:30 43.45673 -80.38610 1030 ft 12 kts 89°
2026-04-19 02:30 43.45709 -80.38562 1031 ft 1 kts
2026-04-19 02:31 43.45757 -80.38571 1031 ft 12 kts 22°
2026-04-19 02:31 43.45803 -80.38464 1031 ft 14 kts 63°
2026-04-19 02:31 43.45850 -80.38323 1030 ft 19 kts 66°
2026-04-19 02:31 43.45910 -80.38146 1030 ft 21 kts 65°
2026-04-19 02:32 43.45966 -80.37980 1031 ft 22 kts 65°
2026-04-19 02:32 43.46017 -80.37824 1031 ft 20 kts 63°
2026-04-19 02:32 43.46075 -80.37658 1031 ft 17 kts 64°
2026-04-19 02:32 43.46123 -80.37516 1031 ft 15 kts 63°
2026-04-19 02:33 43.46162 -80.37399 1031 ft 13 kts 66°
2026-04-19 02:33 43.46200 -80.37284 1031 ft 15 kts 65°
2026-04-19 02:33 43.46247 -80.37145 1031 ft 18 kts 65°
2026-04-19 02:33 43.46302 -80.36982 1031 ft 20 kts 65°
2026-04-19 02:34 43.46365 -80.36792 1031 ft 22 kts 65°
2026-04-19 02:34 43.46428 -80.36608 1032 ft 19 kts 57°
2026-04-19 02:34 43.46498 -80.36567 1032 ft 0 kts 19°
2026-04-19 02:36 43.46502 -80.36566 1032 ft 4 kts 19°
2026-04-19 02:36 43.46562 -80.36572 1032 ft 13 kts 328°
2026-04-19 02:36 43.46571 -80.36682 1030 ft 20 kts 246°
2026-04-19 02:37 43.46434 -80.37088 1029 ft 71 kts 245°
2026-04-19 02:37 43.46208 -80.37769 1180 ft 81 kts 246°
2026-04-19 02:37 43.45908 -80.38388 1423 ft 80 kts 198°
2026-04-19 02:37 43.45307 -80.38296 1554 ft 94 kts 171°
2026-04-19 02:38 43.44651 -80.38224 1760 ft 95 kts 187°
2026-04-19 02:38 43.43986 -80.38303 1963 ft 97 kts 185°
2026-04-19 02:38 43.43302 -80.38345 2162 ft 98 kts 183°
2026-04-19 02:38 43.42614 -80.38356 2362 ft 99 kts 180°
2026-04-19 02:39 43.41928 -80.38289 2571 ft 98 kts 175°
2026-04-19 02:39 43.41258 -80.38154 2775 ft 98 kts 174°
2026-04-19 02:39 43.40570 -80.38127 2962 ft 99 kts 181°
2026-04-19 02:39 43.39884 -80.38111 3161 ft 98 kts 180°
2026-04-19 02:40 43.39202 -80.38094 3359 ft 98 kts 180°
2026-04-19 02:40 43.38523 -80.38078 3557 ft 97 kts 180°
2026-04-19 02:40 43.37849 -80.38061 3762 ft 96 kts 180°
2026-04-19 02:40 43.37181 -80.38044 3952 ft 96 kts 180°
2026-04-19 02:41 43.36519 -80.38026 4149 ft 95 kts 180°
2026-04-19 02:41 43.35864 -80.38009 4345 ft 94 kts 180°
2026-04-19 02:41 43.35216 -80.37993 4547 ft 93 kts 180°
2026-04-19 02:41 43.34577 -80.37976 4738 ft 91 kts 180°
2026-04-19 02:42 43.33948 -80.37960 4932 ft 90 kts 180°
2026-04-19 02:42 43.33338 -80.37969 5120 ft 88 kts 197°
2026-04-19 02:42 43.32965 -80.38554 5315 ft 82 kts 243°
2026-04-19 02:42 43.32754 -80.39262 5509 ft 78 kts 249°
2026-04-19 02:43 43.32557 -80.39941 5695 ft 74 kts 249°
2026-04-19 02:43 43.32368 -80.40574 5870 ft 68 kts 249°
2026-04-19 02:43 43.32128 -80.41123 5979 ft 70 kts 233°
2026-04-19 02:43 43.31848 -80.41723 6070 ft 77 kts 236°
2026-04-19 02:44 43.31524 -80.42388 6107 ft 93 kts 237°
2026-04-19 02:44 43.31131 -80.43193 6105 ft 109 kts 237°
2026-04-19 02:44 43.30691 -80.44096 6096 ft 117 kts 237°
2026-04-19 02:44 43.30227 -80.45045 6094 ft 122 kts 237°
2026-04-19 02:45 43.29756 -80.46013 6095 ft 123 kts 237°
2026-04-19 02:45 43.29277 -80.46994 6092 ft 123 kts 237°
2026-04-19 02:45 43.28800 -80.47971 6097 ft 123 kts 237°
2026-04-19 02:45 43.28324 -80.48948 6097 ft 123 kts 237°
2026-04-19 02:46 43.27847 -80.49925 6097 ft 123 kts 237°
2026-04-19 02:46 43.27370 -80.50903 6093 ft 123 kts 237°
2026-04-19 02:46 43.26892 -80.51880 6095 ft 123 kts 237°
2026-04-19 02:46 43.26415 -80.52856 6094 ft 123 kts 237°
2026-04-19 02:47 43.25938 -80.53833 6095 ft 123 kts 237°
2026-04-19 02:47 43.25461 -80.54810 6097 ft 123 kts 237°
2026-04-19 02:47 43.24984 -80.55785 6096 ft 123 kts 237°
2026-04-19 02:47 43.24506 -80.56761 6091 ft 123 kts 237°
2026-04-19 02:48 43.24029 -80.57737 6094 ft 123 kts 237°
2026-04-19 02:48 43.23551 -80.58712 6092 ft 123 kts 237°
2026-04-19 02:48 43.23073 -80.59688 6095 ft 123 kts 237°
2026-04-19 02:48 43.22595 -80.60664 6097 ft 123 kts 237°
2026-04-19 02:49 43.22117 -80.61639 6097 ft 123 kts 237°
2026-04-19 02:49 43.21639 -80.62616 6092 ft 123 kts 237°
2026-04-19 02:49 43.21161 -80.63590 6094 ft 123 kts 237°
2026-04-19 02:49 43.20683 -80.64565 6097 ft 123 kts 237°
2026-04-19 02:50 43.20205 -80.65539 6097 ft 123 kts 237°
2026-04-19 02:50 43.19732 -80.66503 5977 ft 122 kts 237°
2026-04-19 02:50 43.19263 -80.67461 5848 ft 120 kts 237°
2026-04-19 02:51 43.18348 -80.69322 5598 ft 119 kts 237°
2026-04-19 02:51 43.17878 -80.70278 5470 ft 118 kts 237°
2026-04-19 02:51 43.17418 -80.71215 5345 ft 118 kts 237°
2026-04-19 02:51 43.16958 -80.72150 5220 ft 118 kts 237°
2026-04-19 02:52 43.16497 -80.73085 5094 ft 118 kts 237°
2026-04-19 02:52 43.16030 -80.74036 4843 ft 121 kts 237°
2026-04-19 02:52 43.15573 -80.74967 4601 ft 121 kts 237°
2026-04-19 02:52 43.15094 -80.75938 4346 ft 121 kts 237°
2026-04-19 02:53 43.14623 -80.76893 4098 ft 121 kts 237°
2026-04-19 02:53 43.14153 -80.77847 3849 ft 121 kts 237°
2026-04-19 02:53 43.13683 -80.78801 3601 ft 121 kts 237°
2026-04-19 02:53 43.13212 -80.79757 3356 ft 121 kts 237°
2026-04-19 02:54 43.12744 -80.80705 3101 ft 120 kts 237°
2026-04-19 02:54 43.12274 -80.81655 3050 ft 122 kts 236°
2026-04-19 02:54 43.11797 -80.82619 3051 ft 122 kts 237°
2026-04-19 02:54 43.11321 -80.83584 3051 ft 122 kts 237°
2026-04-19 02:55 43.10845 -80.84547 3051 ft 122 kts 237°
2026-04-19 02:55 43.10369 -80.85511 3051 ft 122 kts 237°
2026-04-19 02:55 43.09939 -80.86383 3051 ft 122 kts 237°
2026-04-19 02:55 43.09462 -80.87347 3051 ft 122 kts 237°
2026-04-19 02:56 43.08987 -80.88310 3051 ft 122 kts 237°
2026-04-19 02:56 43.08511 -80.89271 3051 ft 122 kts 237°
2026-04-19 02:56 43.08115 -80.90284 3048 ft 122 kts 259°
2026-04-19 02:56 43.07975 -80.91422 3052 ft 121 kts 258°
2026-04-19 02:57 43.07780 -80.92547 3053 ft 122 kts 257°
2026-04-19 02:57 43.07581 -80.93672 3051 ft 122 kts 257°
2026-04-19 02:57 43.07377 -80.94797 3051 ft 122 kts 256°
2026-04-19 02:57 43.07177 -80.95891 3050 ft 122 kts 256°
2026-04-19 02:58 43.06968 -80.97028 3050 ft 122 kts 256°
2026-04-19 02:58 43.06762 -80.98150 3034 ft 123 kts 256°
2026-04-19 02:58 43.06548 -80.99316 2915 ft 129 kts 256°
2026-04-19 02:58 43.06327 -81.00518 2793 ft 130 kts 256°
2026-04-19 02:59 43.06122 -81.01636 2646 ft 114 kts 256°
2026-04-19 02:59 43.05935 -81.02653 2505 ft 107 kts 256°
2026-04-19 02:59 43.05756 -81.03623 2371 ft 104 kts 256°
2026-04-19 02:59 43.05579 -81.04582 2246 ft 104 kts 256°
2026-04-19 03:00 43.05401 -81.05546 2121 ft 105 kts 256°
2026-04-19 03:00 43.05244 -81.06514 2018 ft 104 kts 258°
2026-04-19 03:00 43.05079 -81.07429 1977 ft 95 kts 257°
2026-04-19 03:00 43.04940 -81.08324 1883 ft 99 kts 259°
2026-04-19 03:01 43.04807 -81.09244 1778 ft 98 kts 259°
2026-04-19 03:01 43.04667 -81.10177 1623 ft 101 kts 258°
2026-04-19 03:01 43.04534 -81.11118 1458 ft 102 kts 261°
2026-04-19 03:01 43.04413 -81.12073 1293 ft 101 kts 260°
2026-04-19 03:02 43.04279 -81.12998 1134 ft 98 kts 259°
2026-04-19 03:02 43.04154 -81.13886 999 ft 92 kts 259°
2026-04-19 03:02 43.04051 -81.14665 899 ft 70 kts 259°
2026-04-19 03:02 43.03980 -81.15146 903 ft 40 kts 259°
2026-04-19 03:03 43.03940 -81.15436 902 ft 17 kts 262°
2026-04-19 03:03 43.03924 -81.15488 901 ft 12 kts 256°
2026-04-19 03:03 43.03889 -81.15603 900 ft 25 kts 221°
2026-04-19 03:03 43.03728 -81.15418 902 ft 26 kts 134°
2026-04-19 03:04 43.03640 -81.15306 904 ft 26 kts 138°
2026-04-19 03:04 43.03556 -81.15318 904 ft 12 kts 219°
2026-04-19 03:04 43.03494 -81.15409 902 ft 15 kts 228°
2026-04-19 03:04 43.03471 -81.15472 901 ft 0 kts 199°
2026-04-19 03:06 43.03470 -81.15473 901 ft 0 kts 213°
2026-04-19 03:06 43.03492 -81.15497 900 ft 12 kts 350°
2026-04-19 03:06 43.03595 -81.15559 899 ft 20 kts 320°
2026-04-19 03:06 43.03697 -81.15689 899 ft 14 kts 317°
2026-04-19 03:07 43.03706 -81.15701 899 ft 0 kts 319°
2026-04-19 03:07 43.03708 -81.15723 899 ft 9 kts 262°
2026-04-19 03:07 43.03684 -81.15876 901 ft 23 kts 258°
2026-04-19 03:08 43.03647 -81.16109 903 ft 24 kts 258°
2026-04-19 03:08 43.03583 -81.16201 904 ft 9 kts 146°
2026-04-19 03:08 43.03576 -81.16191 904 ft 0 kts 89°